Regional Weather Roundup
Issued by NWS

Home | Current Version | Previous Version | Text Only | Print | Product List | Glossary Off
Versions: 1 2 3 4 5 6 7 8 9 10 11 12 13 14 15 16 17 18 19 20 21 22 23 24 25 26 27 28 29 30 31 32 33 34 35 36 37 38 39 40 41 42 43 44 45 46 47 48 49 50

000
ASUS43 KIND 240009
RWRIN

WEATHER ROUNDUP FOR INDIANA
NATIONAL WEATHER SERVICE INDIANAPOLIS IN
800 PM EDT SUN JUL 23 2017

NOTE: "FAIR" INDICATES FEW OR NO CLOUDS BELOW 12,000 FEET WITH NO
SIGNIFICANT WEATHER AND/OR OBSTRUCTIONS TO VISIBILITY.

* - STATION DOES NOT REPORT WEATHER SUCH AS PRECIPITATION OR FOG.

+ - STATION NOT QUALITY CONTROLLED BY THE NATIONAL WEATHER SERVICE.
    USE DATA WITH CAUTION...ESPECIALLY DEWPOINT AND RELATIVE
    HUMIDITY OBSERVATIONS.

INZ001>003-010>013-019-020-240100-
NORTHWEST INDIANA

CITY           SKY/WX    TMP DP  RH WIND       PRES   REMARKS
GARY /AIRPORT/ PTSUNNY   81  63  54 N9G21     29.81R
KNOX *+        CLOUDY    68  63  83 SE7       29.77F
LA PORTE +     LGT RAIN  70  64  82 NW13G22   29.82R
6HR MIN TEMP:  70; 6HR MAX TEMP:  85;

MICHIGAN CITY+ DRIZZLE   73  64  73 N10       29.82R
MONTICELLO +   SUNNY     82  71  67 W7        29.80S
6HR MIN TEMP:  80; 6HR MAX TEMP:  85;

RENSSELAER +   SUNNY     79  70  73 SW5       29.80S
VALPARAISO     MOSUNNY   72  65  78 CALM      29.80F
6HR MIN TEMP:  72; 6HR MAX TEMP:  90; 6HR PCP:  0.02;


$$

LMZ046-743>745-240100-
SOUTHERN LAKE MICHIGAN

STATION/POSITION TIME  TEMP    WIND        PRES    WAVE
                       AIR SEA DIR/SP/G            HT
                 (UTC) (F)     (DEG/KT/KT) (MB)    (FT)
BURNS HARBOR     2340   76     340/ 11/ 16 1010.2F
MICHIGAN CITY    2340   76     340/ 12/ 13   N/A
5NW MICH CITY    0000   77 76   40/  8/ 10   N/A     1

$$

INZ004-005-014>016-021>024-240100-
NORTH CENTRAL INDIANA

CITY           SKY/WX    TMP DP  RH WIND       PRES   REMARKS
GOSHEN         MOSUNNY   80  60  50 N7        29.78S
6HR MIN TEMP:  80; 6HR MAX TEMP:  86; 6HR PCP:  0.01;

LOGANSPORT +   SUNNY     79  72  78 CALM      29.82R
PERU/GRISSOM   SUNNY     81  71  70 W3        29.80S
6HR MIN TEMP:  74; 6HR MAX TEMP:  85; 6HR PCP:  0.02;

ROCHESTER +    SUNNY     81  70  69 W6        29.82R THUNDER
SOUTH BEND     MOSUNNY   78  63  59 N5        29.79S
6HR MIN TEMP:  77; 6HR MAX TEMP:  86;

WARSAW +       SUNNY     77  68  73 W5        29.80R

$$

INZ006>009-017-018-025>027-240100-
NORTHEAST INDIANA

CITY           SKY/WX    TMP DP  RH WIND       PRES   REMARKS
AUBURN +       MOSUNNY   79  70  73 CALM      29.79S
FORT WAYNE     CLOUDY    81  69  67 W7        29.79R
6HR MIN TEMP:  76; 6HR MAX TEMP:  86; 6HR PCP: TRACE;

HUNTINGTON +   SUNNY     79  71  74 W7        29.79R
6HR MIN TEMP:  79; 6HR MAX TEMP:  85;

KENDALLVILLE + SUNNY     79  66  63 NW3       29.80R

$$

INZ028-029-035-036-043>045-051>053-240100-
WEST CENTRAL INDIANA

CITY           SKY/WX    TMP DP  RH WIND       PRES   REMARKS
GREENCASTLE +  MOSUNNY   81  68  65 CALM      29.84S
LAFAYETTE      SUNNY     82  72  71 W5        29.80S
6HR MIN TEMP:  75; 6HR MAX TEMP:  87;

TERRE HAUTE    SUNNY     84  70  62 NW5       29.83R
6HR MIN TEMP:  81; 6HR MAX TEMP:  88;


$$

INZ030>032-037>040-046>048-054>057-064-065-240100-
CENTRAL INDIANA

CITY           SKY/WX    TMP DP  RH WIND       PRES   REMARKS
CP ATTERBURY + LGT RAIN  77  70  78 W3        29.83F
COLUMBUS       MOSUNNY  N/A N/A N/A N5        29.82F
FRANKFORT +    CLOUDY    84  74  73 CALM      29.84S
6HR MIN TEMP:  79; 6HR MAX TEMP:  88;

GREENWOOD *+   MOSUNNY  N/A N/A N/A W5        29.84R
INDIANAPOLIS   MOSUNNY   81  72  74 SW5       29.82R
6HR MIN TEMP:  70; 6HR MAX TEMP:  86; 6HR PCP:  0.09;

-EAGLE CREEK   SUNNY     81  72  74 VRB3      29.82R
6HR MIN TEMP:  72; 6HR MAX TEMP:  86; 6HR PCP:  0.13;

KOKOMO +         N/A     80  71  74 MISG      29.82
6HR MIN TEMP:  69; 6HR MAX TEMP:  85;

MARION +       SUNNY     77  70  78 W5        29.82R HAZE
MT COMFORT *+  MOSUNNY   79  73  83 CALM      29.84R
SHELBYVILLE    MOSUNNY   81  69  67 W7        29.81S
6HR MIN TEMP:  77; 6HR MAX TEMP:  86; 6HR PCP:  0.01;

ZIONSVILLE +   CLOUDY    76  68  78 W3        29.84S
6HR MIN TEMP:  73; 6HR MAX TEMP:  83;


$$

INZ033-034-041-042-049-050-058-059-240100-
EAST CENTRAL INDIANA

CITY           SKY/WX    TMP DP  RH WIND       PRES   REMARKS
MUNCIE         PTSUNNY   78  65  63 W6        29.82R
6HR MIN TEMP:  78; 6HR MAX TEMP:  86; 6HR PCP: TRACE;

RICHMOND +     CLEAR     77  66  69 W8        29.82S

$$

INZ060-061-067>069-081>083-085>088-240100-
SOUTHWEST INDIANA

CITY           SKY/WX    TMP DP  RH WIND       PRES   REMARKS
EVANSVILLE     PTSUNNY   85  70  60 W5        29.84S
6HR MIN TEMP:  82; 6HR MAX TEMP:  89;

HUNTINGBURG *+ MOSUNNY   83  75  77 W6        29.83F
6HR MIN TEMP:  79; 6HR MAX TEMP:  86;


$$

INZ062-063-066-070>080-084-089>092-240100-
SOUTH CENTRAL AND SOUTHEAST INDIANA

CITY           SKY/WX    TMP DP  RH WIND       PRES   REMARKS
BLOOMINGTON    TSTM      72  67  84 SE13      29.84R
6HR MIN TEMP:  78; 6HR MAX TEMP:  85; 6HR PCP:  0.10;

MADISON *+     MOSUNNY   75  68  78 CALM      29.85S
NORTH VERNON + PTSUNNY   75  70  83 SW3       29.84S
SEYMOUR +      SUNNY    N/A N/A N/A CALM      29.82F

$$




USA.gov is the U.S. government's official web portal to all federal, state and local government web resources and services.